Overview Statistics Trail Chart Weather Telemetry Raw packets
 

This is the latest recevied weather packets stored in our database for station/object SV9TNF-51. If no packets are shown the sender has not sent any weather packets the latest 10 day(s).

<< 30 31 32 33 34 35 36 >>
Time Temp. Humidity Pressure Rain* Wind** Luminosity Snow
1788462562 26.11° C 52% 1010.5 hPa 0 mm 1.34 m/s, 128° - -
1788462266 26.11° C 52% 1010.5 hPa 0 mm 0 m/s - -
1788461961 26.11° C 51% 1010.5 hPa 0 mm 1.34 m/s, 124° - -
1788461661 26.67° C 51% 1010.5 hPa 0 mm 1.79 m/s, 125° - -
1788461361 26.67° C 51% 1010.5 hPa 0 mm 1.34 m/s, 123° - -
1788461061 26.67° C 49% 1010.5 hPa 0 mm 0 m/s - -
1788460761 26.67° C 50% 1010.5 hPa 0 mm 0 m/s - -
1788460461 26.67° C 48% 1009.8 hPa 0 mm 0 m/s - -
1788460161 26.67° C 49% 1009.8 hPa 0 mm 0 m/s - -
1788459861 26.67° C 51% 1009.8 hPa 0 mm 0.89 m/s, 133° - -
1788459561 26.67° C 51% 1009.8 hPa 0 mm 0 m/s - -
1788459261 26.11° C 51% 1009.8 hPa 0 mm 1.34 m/s, 134° - -
1788458960 26.11° C 52% 1009.8 hPa 0 mm 1.34 m/s, 151° - -
1788458660 26.11° C 54% 1009.8 hPa 0 mm 0 m/s - -
1788458360 26.11° C 55% 1009.8 hPa 0 mm 0 m/s - -
1788458060 26.11° C 57% 1009.8 hPa 0 mm 2.68 m/s, 57° - -
1788457760 26.67° C 56% 1009.5 hPa 0 mm 2.68 m/s, 145° - -
1788457460 26.67° C 58% 1009.5 hPa 0 mm 1.79 m/s, 155° - -
1788457160 26.67° C 58% 1009.5 hPa 0 mm 0 m/s - -
1788456860 26.67° C 59% 1009.1 hPa 0 mm 1.34 m/s, 139° - -
1788456559 26.67° C 58% 1009.1 hPa 0 mm 1.34 m/s, 143° - -
1788456259 26.67° C 60% 1009.5 hPa 0 mm 0.89 m/s, 131° - -
1788455959 26.67° C 60% 1009.5 hPa 0 mm 1.34 m/s, 134° - -
1788455660 26.67° C 62% 1009.5 hPa 0 mm 1.79 m/s, 144° - -
1788455359 26.67° C 62% 1009.1 hPa 0 mm 1.34 m/s, 143° - -

* Rain latest hour (hover to see other rain measurements)
** Current wind speed in m/s (hover to see current wind gust speed)